Time,TemperatureF,DewpointF,PressureIn,WindDirection,WindDirectionDegrees,WindSpeedMPH,WindSpeedGustMPH,Humidity,HourlyPrecipIn,Conditions,Clouds,dailyrainin,SoftwareType,DateUTC
2013-08-24 00:00:00,69.6,39.3,30.06,North,0,0.0,0.0,33,0.00,,---,0.00,VWS V14.01,2013-08-24 04:00:00,
2013-08-24 00:01:00,69.6,39.3,30.06,North,0,0.0,0.0,33,0.00,,---,0.00,VWS V14.01,2013-08-24 04:01:00,
2013-08-24 00:06:00,69.6,39.3,30.06,North,0,0.0,0.0,33,0.00,,---,0.00,VWS V14.01,2013-08-24 04:06:00,
2013-08-24 00:11:00,69.4,39.1,30.06,North,0,0.0,0.0,33,0.00,,---,0.00,VWS V14.01,2013-08-24 04:11:00,
2013-08-24 00:16:00,69.4,39.1,30.06,North,0,0.0,0.0,33,0.00,,---,0.00,VWS V14.01,2013-08-24 04:16:00,
2013-08-24 00:21:00,69.4,39.1,30.06,North,0,0.0,0.0,33,0.00,,---,0.00,VWS V14.01,2013-08-24 04:21:00,
2013-08-24 00:26:00,69.4,39.1,30.06,North,0,0.0,0.0,33,0.00,,---,0.00,VWS V14.01,2013-08-24 04:26:00,
2013-08-24 00:31:00,69.4,39.1,30.06,North,0,0.0,0.0,33,0.00,,---,0.00,VWS V14.01,2013-08-24 04:31:00,
2013-08-24 00:36:00,69.4,39.1,30.09,North,0,0.0,0.0,33,0.00,,---,0.00,VWS V14.01,2013-08-24 04:36:00,
2013-08-24 00:41:00,69.1,38.8,30.09,North,0,0.0,0.0,33,0.00,,---,0.00,VWS V14.01,2013-08-24 04:41:00,
2013-08-24 00:46:00,69.1,38.8,30.09,North,0,0.0,0.0,33,0.00,,---,0.00,VWS V14.01,2013-08-24 04:46:00,
2013-08-24 00:51:00,69.1,38.8,30.06,North,0,0.0,0.0,33,0.00,,---,0.00,VWS V14.01,2013-08-24 04:51:00,
2013-08-24 00:56:00,68.7,39.2,30.06,North,0,0.0,0.0,34,0.00,,---,0.00,VWS V14.01,2013-08-24 04:56:00,
2013-08-24 01:01:00,68.5,38.3,30.06,North,0,0.0,0.0,33,0.00,,---,0.00,VWS V14.01,2013-08-24 05:01:00,
2013-08-24 01:06:00,68.4,38.2,30.06,North,0,0.0,0.0,33,0.00,,---,0.00,VWS V14.01,2013-08-24 05:06:00,
2013-08-24 01:11:00,68.2,38.8,30.06,North,0,0.0,0.0,34,0.00,,---,0.00,VWS V14.01,2013-08-24 05:11:00,
2013-08-24 01:16:00,68.2,38.8,30.06,North,0,0.0,0.0,34,0.00,,---,0.00,VWS V14.01,2013-08-24 05:16:00,
2013-08-24 01:21:00,68.2,38.8,30.09,North,0,0.0,0.0,34,0.00,,---,0.00,VWS V14.01,2013-08-24 05:21:00,
2013-08-24 01:26:00,68.2,38.8,30.09,North,0,0.0,0.0,34,0.00,,---,0.00,VWS V14.01,2013-08-24 05:26:00,
2013-08-24 01:31:00,68.2,38.8,30.09,North,0,0.0,0.0,34,0.00,,---,0.00,VWS V14.01,2013-08-24 05:31:00,
2013-08-24 01:36:00,67.6,39.0,30.09,North,0,0.0,0.0,35,0.00,,---,0.00,VWS V14.01,2013-08-24 05:36:00,
2013-08-24 01:41:00,67.6,39.0,30.09,North,0,0.0,0.0,35,0.00,,---,0.00,VWS V14.01,2013-08-24 05:41:00,
2013-08-24 01:46:00,67.1,38.6,30.09,North,0,0.0,0.0,35,0.00,,---,0.00,VWS V14.01,2013-08-24 05:46:00,
2013-08-24 01:51:00,66.9,38.4,30.09,North,0,0.0,0.0,35,0.00,,---,0.00,VWS V14.01,2013-08-24 05:51:00,
2013-08-24 01:56:00,66.9,39.1,30.09,North,0,0.0,0.0,36,0.00,,---,0.00,VWS V14.01,2013-08-24 05:56:00,
2013-08-24 02:01:00,66.7,39.0,30.09,North,0,0.0,0.0,36,0.00,,---,0.00,VWS V14.01,2013-08-24 06:01:00,
2013-08-24 02:06:00,66.6,38.8,30.09,North,0,0.0,0.0,36,0.00,,---,0.00,VWS V14.01,2013-08-24 06:06:00,
2013-08-24 02:11:00,66.6,38.8,30.09,North,0,0.0,0.0,36,0.00,,---,0.00,VWS V14.01,2013-08-24 06:11:00,
2013-08-24 02:16:00,66.4,38.6,30.09,North,0,0.0,0.0,36,0.00,,---,0.00,VWS V14.01,2013-08-24 06:16:00,
2013-08-24 02:21:00,66.2,38.5,30.09,North,0,0.0,0.0,36,0.00,,---,0.00,VWS V14.01,2013-08-24 06:21:00,
2013-08-24 02:26:00,66.2,38.5,30.09,North,0,0.0,0.0,36,0.00,,---,0.00,VWS V14.01,2013-08-24 06:26:00,
2013-08-24 02:31:00,66.0,39.0,30.09,North,0,0.0,0.0,37,0.00,,---,0.00,VWS V14.01,2013-08-24 06:31:00,
2013-08-24 02:36:00,66.0,39.0,30.09,North,0,0.0,0.0,37,0.00,,---,0.00,VWS V14.01,2013-08-24 06:36:00,
2013-08-24 02:41:00,65.8,38.9,30.09,North,0,0.0,0.0,37,0.00,,---,0.00,VWS V14.01,2013-08-24 06:41:00,
2013-08-24 02:46:00,65.7,39.4,30.09,North,0,0.0,0.0,38,0.00,,---,0.00,VWS V14.01,2013-08-24 06:46:00,
2013-08-24 02:51:00,65.7,39.4,30.09,North,0,0.0,0.0,38,0.00,,---,0.00,VWS V14.01,2013-08-24 06:51:00,
2013-08-24 02:56:00,65.5,39.2,30.09,North,0,0.0,0.0,38,0.00,,---,0.00,VWS V14.01,2013-08-24 06:56:00,
2013-08-24 03:01:00,65.5,39.2,30.09,North,0,0.0,0.0,38,0.00,,---,0.00,VWS V14.01,2013-08-24 07:01:00,
2013-08-24 03:06:00,65.3,39.1,30.09,North,0,0.0,0.0,38,0.00,,---,0.00,VWS V14.01,2013-08-24 07:06:00,
2013-08-24 03:11:00,65.3,39.1,30.09,North,0,0.0,0.0,38,0.00,,---,0.00,VWS V14.01,2013-08-24 07:11:00,
2013-08-24 03:16:00,64.9,38.8,30.09,North,0,0.0,0.0,38,0.00,,---,0.00,VWS V14.01,2013-08-24 07:16:00,
2013-08-24 03:21:00,64.9,38.8,30.09,North,0,0.0,0.0,38,0.00,,---,0.00,VWS V14.01,2013-08-24 07:21:00,
2013-08-24 03:26:00,64.9,38.8,30.09,North,0,0.0,0.0,38,0.00,,---,0.00,VWS V14.01,2013-08-24 07:26:00,
2013-08-24 03:31:00,64.8,39.2,30.09,North,0,0.0,0.0,39,0.00,,---,0.00,VWS V14.01,2013-08-24 07:31:00,
2013-08-24 03:36:00,64.8,39.2,30.09,North,0,0.0,0.0,39,0.00,,---,0.00,VWS V14.01,2013-08-24 07:36:00,
2013-08-24 03:41:00,64.8,39.2,30.09,North,0,0.0,0.0,39,0.00,,---,0.00,VWS V14.01,2013-08-24 07:41:00,
2013-08-24 03:46:00,64.8,39.2,30.09,North,0,0.0,0.0,39,0.00,,---,0.00,VWS V14.01,2013-08-24 07:46:00,
2013-08-24 03:51:00,64.9,40.1,30.09,North,0,0.0,0.0,40,0.00,,---,0.00,VWS V14.01,2013-08-24 07:51:00,
2013-08-24 03:55:00,64.9,40.1,30.09,North,0,0.0,0.0,40,0.00,,---,0.00,VWS V14.01,2013-08-24 07:55:00,
2013-08-24 04:00:00,64.9,39.4,30.09,North,0,0.0,0.0,39,0.00,,---,0.00,VWS V14.01,2013-08-24 08:00:00,
2013-08-24 04:05:00,64.9,39.4,30.09,North,0,0.0,0.0,39,0.00,,---,0.00,VWS V14.01,2013-08-24 08:05:00,
2013-08-24 04:10:00,64.9,39.4,30.09,North,0,0.0,0.0,39,0.00,,---,0.00,VWS V14.01,2013-08-24 08:10:00,
2013-08-24 04:15:00,64.9,39.4,30.09,North,0,0.0,0.0,39,0.00,,---,0.00,VWS V14.01,2013-08-24 08:15:00,
2013-08-24 04:20:00,64.9,39.4,30.09,North,0,0.0,0.0,39,0.00,,---,0.00,VWS V14.01,2013-08-24 08:20:00,
2013-08-24 04:25:00,64.8,38.6,30.09,North,0,0.0,0.0,38,0.00,,---,0.00,VWS V14.01,2013-08-24 08:25:00,
2013-08-24 04:30:00,64.4,38.3,30.09,North,0,0.0,0.0,38,0.00,,---,0.00,VWS V14.01,2013-08-24 08:30:00,
2013-08-24 04:35:00,64.4,38.9,30.12,North,0,0.0,0.0,39,0.00,,---,0.00,VWS V14.01,2013-08-24 08:35:00,
2013-08-24 04:40:00,64.2,38.8,30.12,North,0,0.0,0.0,39,0.00,,---,0.00,VWS V14.01,2013-08-24 08:40:00,
2013-08-24 04:45:00,64.2,38.8,30.12,North,0,0.0,0.0,39,0.00,,---,0.00,VWS V14.01,2013-08-24 08:45:00,
2013-08-24 04:50:00,64.2,38.8,30.12,North,0,0.0,0.0,39,0.00,,---,0.00,VWS V14.01,2013-08-24 08:50:00,
2013-08-24 04:55:00,64.2,38.8,30.12,North,0,0.0,0.0,39,0.00,,---,0.00,VWS V14.01,2013-08-24 08:55:00,
2013-08-24 05:00:00,64.2,38.8,30.12,North,0,0.0,0.0,39,0.00,,---,0.00,VWS V14.01,2013-08-24 09:00:00,
2013-08-24 05:05:00,63.5,38.1,30.12,North,0,0.0,0.0,39,0.00,,---,0.00,VWS V14.01,2013-08-24 09:05:00,
2013-08-24 05:10:00,63.5,38.1,30.12,North,0,0.0,0.0,39,0.00,,---,0.00,VWS V14.01,2013-08-24 09:10:00,
2013-08-24 05:15:00,63.1,37.8,30.12,North,0,0.0,0.0,39,0.00,,---,0.00,VWS V14.01,2013-08-24 09:15:00,
2013-08-24 05:20:00,63.0,38.3,30.12,North,0,0.0,0.0,40,0.00,,---,0.00,VWS V14.01,2013-08-24 09:20:00,
2013-08-24 05:25:00,62.8,37.5,30.12,North,0,0.0,0.0,39,0.00,,---,0.00,VWS V14.01,2013-08-24 09:25:00,
2013-08-24 05:30:00,62.8,37.5,30.12,North,0,0.0,0.0,39,0.00,,---,0.00,VWS V14.01,2013-08-24 09:30:00,
2013-08-24 05:35:00,62.6,37.3,30.15,North,0,0.0,0.0,39,0.00,,---,0.00,VWS V14.01,2013-08-24 09:35:00,
2013-08-24 05:40:00,62.4,37.8,30.15,North,0,0.0,0.0,40,0.00,,---,0.00,VWS V14.01,2013-08-24 09:40:00,
2013-08-24 05:45:00,62.2,38.3,30.15,North,0,0.0,0.0,41,0.00,,---,0.00,VWS V14.01,2013-08-24 09:45:00,
2013-08-24 05:50:00,62.2,37.6,30.15,North,0,0.0,0.0,40,0.00,,---,0.00,VWS V14.01,2013-08-24 09:50:00,
2013-08-24 05:55:00,62.1,37.5,30.15,North,0,0.0,0.0,40,0.00,,---,0.00,VWS V14.01,2013-08-24 09:55:00,
2013-08-24 06:00:00,61.9,38.0,30.15,North,0,0.0,0.0,41,0.00,,---,0.00,VWS V14.01,2013-08-24 10:00:00,
2013-08-24 06:05:00,61.7,37.8,30.15,North,0,0.0,0.0,41,0.00,,---,0.00,VWS V14.01,2013-08-24 10:05:00,
2013-08-24 06:10:00,61.7,37.8,30.15,North,0,0.0,0.0,41,0.00,,---,0.00,VWS V14.01,2013-08-24 10:10:00,
2013-08-24 06:15:00,61.5,38.2,30.15,North,0,0.0,0.0,42,0.00,,---,0.00,VWS V14.01,2013-08-24 10:15:00,
2013-08-24 06:20:00,61.5,38.2,30.15,North,0,0.0,0.0,42,0.00,,---,0.00,VWS V14.01,2013-08-24 10:20:00,
2013-08-24 06:25:00,61.3,38.1,30.15,North,0,0.0,0.0,42,0.00,,---,0.00,VWS V14.01,2013-08-24 10:25:00,
2013-08-24 06:30:00,61.2,37.9,30.15,North,0,0.0,0.0,42,0.00,,---,0.00,VWS V14.01,2013-08-24 10:30:00,
2013-08-24 06:35:00,61.0,37.8,30.15,North,0,0.0,0.0,42,0.00,,---,0.00,VWS V14.01,2013-08-24 10:35:00,
2013-08-24 06:40:00,61.0,38.3,30.15,North,0,0.0,0.0,43,0.00,,---,0.00,VWS V14.01,2013-08-24 10:40:00,
2013-08-24 06:45:00,60.8,38.8,30.15,North,0,0.0,0.0,44,0.00,,---,0.00,VWS V14.01,2013-08-24 10:45:00,
2013-08-24 06:50:00,60.6,38.6,30.15,North,0,0.0,0.0,44,0.00,,---,0.00,VWS V14.01,2013-08-24 10:50:00,
2013-08-24 06:55:00,60.6,39.2,30.15,North,0,0.0,0.0,45,0.00,,---,0.00,VWS V14.01,2013-08-24 10:55:00,
2013-08-24 07:00:00,60.4,38.4,30.15,North,0,0.0,0.0,44,0.00,,---,0.00,VWS V14.01,2013-08-24 11:00:00,
2013-08-24 07:05:00,60.4,38.4,30.15,North,0,0.0,0.0,44,0.00,,---,0.00,VWS V14.01,2013-08-24 11:05:00,
2013-08-24 07:10:00,60.4,38.4,30.15,North,0,0.0,0.0,44,0.00,,---,0.00,VWS V14.01,2013-08-24 11:10:00,
2013-08-24 07:15:00,61.0,39.5,30.15,North,0,0.0,0.0,45,0.00,,---,0.00,VWS V14.01,2013-08-24 11:15:00,
2013-08-24 07:20:00,61.5,39.4,30.15,North,0,0.0,0.0,44,0.00,,---,0.00,VWS V14.01,2013-08-24 11:20:00,
2013-08-24 07:25:00,61.9,39.8,30.15,North,0,0.0,0.0,44,0.00,,---,0.00,VWS V14.01,2013-08-24 11:25:00,
2013-08-24 07:30:00,62.1,39.3,30.15,North,0,0.0,0.0,43,0.00,,---,0.00,VWS V14.01,2013-08-24 11:30:00,
2013-08-24 07:35:00,62.4,39.7,30.18,North,0,0.0,0.0,43,0.00,,---,0.00,VWS V14.01,2013-08-24 11:35:00,
2013-08-24 07:40:00,62.6,38.6,30.18,North,0,0.0,0.0,41,0.00,,---,0.00,VWS V14.01,2013-08-24 11:40:00,
2013-08-24 07:45:00,63.1,39.1,30.18,North,0,0.0,0.0,41,0.00,,---,0.00,VWS V14.01,2013-08-24 11:45:00,
2013-08-24 07:50:00,63.7,38.3,30.18,North,0,0.0,0.0,39,0.00,,---,0.00,VWS V14.01,2013-08-24 11:50:00,
2013-08-24 07:55:00,64.8,38.6,30.18,North,0,0.0,0.0,38,0.00,,---,0.00,VWS V14.01,2013-08-24 11:55:00,
2013-08-24 08:00:00,66.4,38.6,30.18,North,0,0.0,0.0,36,0.00,,---,0.00,VWS V14.01,2013-08-24 12:00:00,
2013-08-24 08:05:00,66.7,38.2,30.18,North,0,0.0,0.0,35,0.00,,---,0.00,VWS V14.01,2013-08-24 12:05:00,
2013-08-24 08:10:00,68.0,38.6,30.18,North,0,0.0,0.0,34,0.00,,---,0.00,VWS V14.01,2013-08-24 12:10:00,
2013-08-24 08:15:00,69.4,39.1,30.18,North,0,0.0,0.0,33,0.00,,---,0.00,VWS V14.01,2013-08-24 12:15:00,
2013-08-24 08:20:00,70.0,38.8,30.18,North,0,0.0,0.0,32,0.00,,---,0.00,VWS V14.01,2013-08-24 12:20:00,
2013-08-24 08:25:00,70.2,39.0,30.18,North,0,0.0,0.0,32,0.00,,---,0.00,VWS V14.01,2013-08-24 12:25:00,
2013-08-24 08:30:00,70.3,38.3,30.18,North,0,0.0,0.0,31,0.00,,---,0.00,VWS V14.01,2013-08-24 12:30:00,
2013-08-24 08:35:00,69.6,38.5,30.18,North,0,0.0,0.0,32,0.00,,---,0.00,VWS V14.01,2013-08-24 12:35:00,
2013-08-24 08:40:00,69.1,38.0,30.18,North,0,0.0,0.0,32,0.00,,---,0.00,VWS V14.01,2013-08-24 12:40:00,
2013-08-24 08:45:00,68.7,37.7,30.18,North,0,0.0,0.0,32,0.00,,---,0.00,VWS V14.01,2013-08-24 12:45:00,
2013-08-24 08:50:00,68.7,37.7,30.18,North,0,0.0,0.0,32,0.00,,---,0.00,VWS V14.01,2013-08-24 12:50:00,
2013-08-24 08:55:00,68.7,37.7,30.18,North,0,0.0,0.0,32,0.00,,---,0.00,VWS V14.01,2013-08-24 12:55:00,
2013-08-24 09:00:00,68.7,37.7,30.18,North,0,0.0,0.0,32,0.00,,---,0.00,VWS V14.01,2013-08-24 13:00:00,
2013-08-24 09:05:00,69.1,38.0,30.18,North,0,0.0,0.0,32,0.00,,---,0.00,VWS V14.01,2013-08-24 13:05:00,
2013-08-24 09:10:00,69.1,38.0,30.18,North,0,0.0,0.0,32,0.00,,---,0.00,VWS V14.01,2013-08-24 13:10:00,
2013-08-24 09:15:00,69.6,36.8,30.18,North,0,0.0,0.0,30,0.00,,---,0.00,VWS V14.01,2013-08-24 13:15:00,
2013-08-24 09:20:00,69.6,36.8,30.18,North,0,0.0,0.0,30,0.00,,---,0.00,VWS V14.01,2013-08-24 13:20:00,
2013-08-24 09:25:00,70.5,37.6,30.18,North,0,0.0,0.0,30,0.00,,---,0.00,VWS V14.01,2013-08-24 13:25:00,
2013-08-24 09:30:00,70.5,37.6,30.18,North,0,0.0,0.0,30,0.00,,---,0.00,VWS V14.01,2013-08-24 13:30:00,
2013-08-24 09:35:00,70.9,37.1,30.18,North,0,0.0,0.0,29,0.00,,---,0.00,VWS V14.01,2013-08-24 13:35:00,
2013-08-24 09:40:00,71.1,37.2,30.18,North,0,0.0,0.0,29,0.00,,---,0.00,VWS V14.01,2013-08-24 13:40:00,
2013-08-24 09:45:00,71.2,37.4,30.18,North,0,0.0,0.0,29,0.00,,---,0.00,VWS V14.01,2013-08-24 13:45:00,
2013-08-24 09:50:00,71.2,37.4,30.18,North,0,0.0,0.0,29,0.00,,---,0.00,VWS V14.01,2013-08-24 13:50:00,
2013-08-24 09:55:00,72.0,37.1,30.18,North,0,0.0,0.0,28,0.00,,---,0.00,VWS V14.01,2013-08-24 13:55:00,
2013-08-24 10:00:00,72.3,37.4,30.18,North,0,0.0,0.0,28,0.00,,---,0.00,VWS V14.01,2013-08-24 14:00:00,
2013-08-24 10:05:00,72.9,38.8,30.18,North,0,0.0,0.0,29,0.00,,---,0.00,VWS V14.01,2013-08-24 14:05:00,
2013-08-24 10:10:00,73.2,39.1,30.18,North,0,0.0,0.0,29,0.00,,---,0.00,VWS V14.01,2013-08-24 14:10:00,
2013-08-24 10:15:00,73.8,38.7,30.18,North,0,0.0,0.0,28,0.00,,---,0.00,VWS V14.01,2013-08-24 14:15:00,
2013-08-24 10:20:00,73.8,37.7,30.18,North,0,0.0,0.0,27,0.00,,---,0.00,VWS V14.01,2013-08-24 14:20:00,
2013-08-24 10:25:00,74.5,38.3,30.18,North,0,0.0,0.0,27,0.00,,---,0.00,VWS V14.01,2013-08-24 14:25:00,
2013-08-24 10:30:00,74.8,37.7,30.18,North,0,0.0,0.0,26,0.00,,---,0.00,VWS V14.01,2013-08-24 14:30:00,
2013-08-24 10:35:00,75.2,37.0,30.18,North,0,0.0,0.0,25,0.00,,---,0.00,VWS V14.01,2013-08-24 14:35:00,
2013-08-24 10:40:00,75.6,37.3,30.18,North,0,0.0,0.0,25,0.00,,---,0.00,VWS V14.01,2013-08-24 14:40:00,
2013-08-24 10:45:00,75.9,37.6,30.18,North,0,0.0,0.0,25,0.00,,---,0.00,VWS V14.01,2013-08-24 14:45:00,
2013-08-24 10:50:00,76.5,38.1,30.18,North,0,0.0,0.0,25,0.00,,---,0.00,VWS V14.01,2013-08-24 14:50:00,
2013-08-24 10:55:00,77.0,38.5,30.18,North,0,0.0,0.0,25,0.00,,---,0.00,VWS V14.01,2013-08-24 14:55:00,
2013-08-24 11:00:00,77.2,38.7,30.18,North,0,0.0,0.0,25,0.00,,---,0.00,VWS V14.01,2013-08-24 15:00:00,
2013-08-24 11:05:00,77.7,38.1,30.18,North,0,0.0,0.0,24,0.00,,---,0.00,VWS V14.01,2013-08-24 15:05:00,
2013-08-24 11:10:00,77.9,38.2,30.18,North,0,0.0,0.0,24,0.00,,---,0.00,VWS V14.01,2013-08-24 15:10:00,
2013-08-24 11:15:00,78.1,38.4,30.18,North,0,0.0,0.0,24,0.00,,---,0.00,VWS V14.01,2013-08-24 15:15:00,
2013-08-24 11:20:00,79.0,38.1,30.18,North,0,0.0,0.0,23,0.00,,---,0.00,VWS V14.01,2013-08-24 15:20:00,
2013-08-24 11:25:00,79.0,38.1,30.18,North,0,0.0,0.0,23,0.00,,---,0.00,VWS V14.01,2013-08-24 15:25:00,
2013-08-24 11:30:00,79.0,38.1,30.18,North,0,0.0,0.0,23,0.00,,---,0.00,VWS V14.01,2013-08-24 15:30:00,
2013-08-24 11:35:00,79.5,38.5,30.18,North,0,0.0,0.0,23,0.00,,---,0.00,VWS V14.01,2013-08-24 15:35:00,
2013-08-24 11:40:00,80.1,39.0,30.18,North,0,0.0,0.0,23,0.00,,---,0.00,VWS V14.01,2013-08-24 15:40:00,
2013-08-24 11:45:00,80.6,38.3,30.18,North,0,0.0,0.0,22,0.00,,---,0.00,VWS V14.01,2013-08-24 15:45:00,
2013-08-24 11:50:00,80.8,37.2,30.18,North,0,0.0,0.0,21,0.00,,---,0.00,VWS V14.01,2013-08-24 15:50:00,
2013-08-24 11:55:00,81.1,38.7,30.18,North,0,0.0,0.0,22,0.00,,---,0.00,VWS V14.01,2013-08-24 15:55:00,
2013-08-24 12:00:00,81.3,37.7,30.18,North,0,0.0,0.0,21,0.00,,---,0.00,VWS V14.01,2013-08-24 16:00:00,
2013-08-24 12:05:00,81.5,37.8,30.18,North,0,0.0,0.0,21,0.00,,---,0.00,VWS V14.01,2013-08-24 16:05:00,
2013-08-24 12:10:00,81.7,36.8,30.18,North,0,0.0,0.0,20,0.00,,---,0.00,VWS V14.01,2013-08-24 16:10:00,
2013-08-24 12:15:00,81.9,36.9,30.18,North,0,0.0,0.0,20,0.00,,---,0.00,VWS V14.01,2013-08-24 16:15:00,
2013-08-24 12:20:00,82.4,36.0,30.18,North,0,0.0,0.0,19,0.00,,---,0.00,VWS V14.01,2013-08-24 16:20:00,
2013-08-24 12:25:00,82.8,36.3,30.18,North,0,0.0,0.0,19,0.00,,---,0.00,VWS V14.01,2013-08-24 16:25:00,
2013-08-24 12:30:00,82.8,36.3,30.18,North,0,0.0,0.0,19,0.00,,---,0.00,VWS V14.01,2013-08-24 16:30:00,
2013-08-24 12:35:00,82.9,36.5,30.18,North,0,0.0,0.0,19,0.00,,---,0.00,VWS V14.01,2013-08-24 16:35:00,
2013-08-24 12:40:00,83.5,36.9,30.18,North,0,0.0,0.0,19,0.00,,---,0.00,VWS V14.01,2013-08-24 16:40:00,
2013-08-24 12:45:00,83.5,36.9,30.18,North,0,0.0,0.0,19,0.00,,---,0.00,VWS V14.01,2013-08-24 16:45:00,
2013-08-24 12:50:00,83.7,37.1,30.18,North,0,0.0,0.0,19,0.00,,---,0.00,VWS V14.01,2013-08-24 16:50:00,
2013-08-24 12:55:00,84.0,37.4,30.18,North,0,0.0,0.0,19,0.00,,---,0.00,VWS V14.01,2013-08-24 16:55:00,
2013-08-24 13:00:00,84.2,36.2,30.18,North,0,0.0,0.0,18,0.00,,---,0.00,VWS V14.01,2013-08-24 17:00:00,
2013-08-24 13:05:00,84.2,36.2,30.18,North,0,0.0,0.0,18,0.00,,---,0.00,VWS V14.01,2013-08-24 17:05:00,
2013-08-24 13:10:00,83.7,37.1,30.18,North,0,0.0,0.0,19,0.00,,---,0.00,VWS V14.01,2013-08-24 17:10:00,
2013-08-24 13:15:00,84.4,36.3,30.18,North,0,0.0,0.0,18,0.00,,---,0.00,VWS V14.01,2013-08-24 17:15:00,
2013-08-24 13:20:00,84.7,36.6,30.18,North,0,0.0,0.0,18,0.00,,---,0.00,VWS V14.01,2013-08-24 17:20:00,
2013-08-24 13:25:00,84.9,36.7,30.18,North,0,0.0,0.0,18,0.00,,---,0.00,VWS V14.01,2013-08-24 17:25:00,
2013-08-24 13:30:00,84.9,33.8,30.18,North,0,0.0,0.0,16,0.00,,---,0.00,VWS V14.01,2013-08-24 17:30:00,
2013-08-24 13:35:00,85.1,33.9,30.18,North,0,0.0,0.0,16,0.00,,---,0.00,VWS V14.01,2013-08-24 17:35:00,
2013-08-24 13:40:00,85.3,34.1,30.18,North,0,0.0,0.0,16,0.00,,---,0.00,VWS V14.01,2013-08-24 17:40:00,
2013-08-24 13:45:00,85.3,34.1,30.18,North,0,0.0,0.0,16,0.00,,---,0.00,VWS V14.01,2013-08-24 17:45:00,
2013-08-24 13:50:00,85.3,34.1,30.18,North,0,0.0,0.0,16,0.00,,---,0.00,VWS V14.01,2013-08-24 17:50:00,
2013-08-24 13:55:00,85.3,34.1,30.18,North,0,0.0,0.0,16,0.00,,---,0.00,VWS V14.01,2013-08-24 17:55:00,
2013-08-24 14:00:00,86.2,34.8,30.18,North,0,0.0,0.0,16,0.00,,---,0.00,VWS V14.01,2013-08-24 18:00:00,
2013-08-24 14:05:00,86.0,34.6,30.18,North,0,0.0,0.0,16,0.00,,---,0.00,VWS V14.01,2013-08-24 18:05:00,
2013-08-24 14:10:00,86.7,35.2,30.18,North,0,0.0,0.0,16,0.00,,---,0.00,VWS V14.01,2013-08-24 18:10:00,
2013-08-24 14:15:00,86.4,34.9,30.18,North,0,0.0,0.0,16,0.00,,---,0.00,VWS V14.01,2013-08-24 18:15:00,
2013-08-24 14:20:00,86.2,34.8,30.18,North,0,0.0,0.0,16,0.00,,---,0.00,VWS V14.01,2013-08-24 18:20:00,
2013-08-24 14:25:00,86.2,34.8,30.18,North,0,0.0,0.0,16,0.00,,---,0.00,VWS V14.01,2013-08-24 18:25:00,
2013-08-24 14:30:00,86.2,34.8,30.18,North,0,0.0,0.0,16,0.00,,---,0.00,VWS V14.01,2013-08-24 18:30:00,
2013-08-24 14:35:00,85.8,34.5,30.18,North,0,0.0,0.0,16,0.00,,---,0.00,VWS V14.01,2013-08-24 18:35:00,
2013-08-24 14:40:00,85.8,34.5,30.18,North,0,0.0,0.0,16,0.00,,---,0.00,VWS V14.01,2013-08-24 18:40:00,
2013-08-24 14:45:00,86.0,34.6,30.18,North,0,0.0,0.0,16,0.00,,---,0.00,VWS V14.01,2013-08-24 18:45:00,
2013-08-24 14:50:00,86.0,34.6,30.18,North,0,0.0,0.0,16,0.00,,---,0.00,VWS V14.01,2013-08-24 18:50:00,
2013-08-24 14:55:00,86.2,34.8,30.18,North,0,0.0,0.0,16,0.00,,---,0.00,VWS V14.01,2013-08-24 18:55:00,
2013-08-24 15:00:00,87.1,35.5,30.18,North,0,0.0,0.0,16,0.00,,---,0.00,VWS V14.01,2013-08-24 19:00:00,
2013-08-24 15:05:00,86.2,29.6,30.18,North,0,0.0,0.0,13,0.00,,---,0.00,VWS V14.01,2013-08-24 19:05:00,
2013-08-24 15:10:00,86.7,35.2,30.18,North,0,0.0,0.0,16,0.00,,---,0.00,VWS V14.01,2013-08-24 19:10:00,
2013-08-24 15:15:00,86.2,29.6,30.18,North,0,0.0,0.0,13,0.00,,---,0.00,VWS V14.01,2013-08-24 19:15:00,
2013-08-24 15:20:00,86.2,34.8,30.18,North,0,0.0,0.0,16,0.00,,---,0.00,VWS V14.01,2013-08-24 19:20:00,
2013-08-24 15:25:00,86.4,29.8,30.18,North,0,0.0,0.0,13,0.00,,---,0.00,VWS V14.01,2013-08-24 19:25:00,
2013-08-24 15:30:00,86.4,29.8,30.18,North,0,0.0,0.0,13,0.00,,---,0.00,VWS V14.01,2013-08-24 19:30:00,
2013-08-24 15:35:00,86.4,29.8,30.18,North,0,0.0,0.0,13,0.00,,---,0.00,VWS V14.01,2013-08-24 19:35:00,
2013-08-24 15:40:00,86.4,29.8,30.18,North,0,0.0,0.0,13,0.00,,---,0.00,VWS V14.01,2013-08-24 19:40:00,
2013-08-24 15:45:00,86.2,29.6,30.18,North,0,0.0,0.0,13,0.00,,---,0.00,VWS V14.01,2013-08-24 19:45:00,
2013-08-24 15:50:00,86.2,29.6,30.18,North,0,0.0,0.0,13,0.00,,---,0.00,VWS V14.01,2013-08-24 19:50:00,
2013-08-24 15:55:00,86.2,29.6,30.18,North,0,0.0,0.0,13,0.00,,---,0.00,VWS V14.01,2013-08-24 19:55:00,
2013-08-24 16:00:00,86.4,29.8,30.18,North,0,0.0,0.0,13,0.00,,---,0.00,VWS V14.01,2013-08-24 20:00:00,
2013-08-24 16:05:00,86.2,29.6,30.18,North,0,0.0,0.0,13,0.00,,---,0.00,VWS V14.01,2013-08-24 20:05:00,
2013-08-24 16:10:00,85.8,29.4,30.18,North,0,0.0,0.0,13,0.00,,---,0.00,VWS V14.01,2013-08-24 20:10:00,
2013-08-24 16:15:00,86.0,29.5,30.18,North,0,0.0,0.0,13,0.00,,---,0.00,VWS V14.01,2013-08-24 20:15:00,
2013-08-24 16:20:00,87.1,30.3,30.18,North,0,0.0,0.0,13,0.00,,---,0.00,VWS V14.01,2013-08-24 20:20:00,
2013-08-24 16:25:00,87.6,30.8,30.18,North,0,0.0,0.0,13,0.00,,---,0.00,VWS V14.01,2013-08-24 20:25:00,
2013-08-24 16:30:00,86.2,29.6,30.18,North,0,0.0,0.0,13,0.00,,---,0.00,VWS V14.01,2013-08-24 20:30:00,
2013-08-24 16:35:00,86.0,29.5,30.18,North,0,0.0,0.0,13,0.00,,---,0.00,VWS V14.01,2013-08-24 20:35:00,
2013-08-24 16:40:00,87.1,30.3,30.18,North,0,0.0,0.0,13,0.00,,---,0.00,VWS V14.01,2013-08-24 20:40:00,
2013-08-24 16:45:00,86.4,29.8,30.18,North,0,0.0,0.0,13,0.00,,---,0.00,VWS V14.01,2013-08-24 20:45:00,
2013-08-24 16:50:00,85.6,29.2,30.18,North,0,0.0,0.0,13,0.00,,---,0.00,VWS V14.01,2013-08-24 20:50:00,
2013-08-24 16:55:00,85.5,29.1,30.18,North,0,0.0,0.0,13,0.00,,---,0.00,VWS V14.01,2013-08-24 20:55:00,
2013-08-24 17:00:00,85.3,28.9,30.18,North,0,0.0,0.0,13,0.00,,---,0.00,VWS V14.01,2013-08-24 21:00:00,
2013-08-24 17:05:00,85.1,28.8,30.18,North,0,0.0,0.0,13,0.00,,---,0.00,VWS V14.01,2013-08-24 21:05:00,
2013-08-24 17:10:00,85.1,28.8,30.18,North,0,0.0,0.0,13,0.00,,---,0.00,VWS V14.01,2013-08-24 21:10:00,
2013-08-24 17:15:00,85.1,28.8,30.18,North,0,0.0,0.0,13,0.00,,---,0.00,VWS V14.01,2013-08-24 21:15:00,
2013-08-24 17:20:00,85.1,28.8,30.18,North,0,0.0,0.0,13,0.00,,---,0.00,VWS V14.01,2013-08-24 21:20:00,
2013-08-24 17:25:00,85.1,28.8,30.18,North,0,0.0,0.0,13,0.00,,---,0.00,VWS V14.01,2013-08-24 21:25:00,
2013-08-24 17:30:00,85.3,28.9,30.18,North,0,0.0,0.0,13,0.00,,---,0.00,VWS V14.01,2013-08-24 21:30:00,
2013-08-24 17:35:00,85.3,28.9,30.18,North,0,0.0,0.0,13,0.00,,---,0.00,VWS V14.01,2013-08-24 21:35:00,
2013-08-24 17:40:00,86.9,30.2,30.18,North,0,0.0,0.0,13,0.00,,---,0.00,VWS V14.01,2013-08-24 21:40:00,
2013-08-24 17:45:00,85.8,29.4,30.18,North,0,0.0,0.0,13,0.00,,---,0.00,VWS V14.01,2013-08-24 21:45:00,
2013-08-24 17:50:00,85.1,28.8,30.18,North,0,0.0,0.0,13,0.00,,---,0.00,VWS V14.01,2013-08-24 21:50:00,
2013-08-24 17:55:00,84.7,28.5,30.18,North,0,0.0,0.0,13,0.00,,---,0.00,VWS V14.01,2013-08-24 21:55:00,
2013-08-24 18:00:00,84.6,28.4,30.18,North,0,0.0,0.0,13,0.00,,---,0.00,VWS V14.01,2013-08-24 22:00:00,
2013-08-24 18:05:00,84.4,28.2,30.18,North,0,0.0,0.0,13,0.00,,---,0.00,VWS V14.01,2013-08-24 22:05:00,
2013-08-24 18:10:00,84.6,28.4,30.18,North,0,0.0,0.0,13,0.00,,---,0.00,VWS V14.01,2013-08-24 22:10:00,
2013-08-24 18:15:00,84.4,28.2,30.18,North,0,0.0,0.0,13,0.00,,---,0.00,VWS V14.01,2013-08-24 22:15:00,
2013-08-24 18:20:00,84.2,28.1,30.18,North,0,0.0,0.0,13,0.00,,---,0.00,VWS V14.01,2013-08-24 22:20:00,
2013-08-24 18:25:00,84.2,28.1,30.18,North,0,0.0,0.0,13,0.00,,---,0.00,VWS V14.01,2013-08-24 22:25:00,
2013-08-24 18:30:00,84.2,28.1,30.18,North,0,0.0,0.0,13,0.00,,---,0.00,VWS V14.01,2013-08-24 22:30:00,
2013-08-24 18:35:00,84.0,29.8,30.18,North,0,0.0,0.0,14,0.00,,---,0.00,VWS V14.01,2013-08-24 22:35:00,
2013-08-24 18:40:00,83.8,29.6,30.18,North,0,0.0,0.0,14,0.00,,---,0.00,VWS V14.01,2013-08-24 22:40:00,
2013-08-24 18:45:00,83.7,29.5,30.18,North,0,0.0,0.0,14,0.00,,---,0.00,VWS V14.01,2013-08-24 22:45:00,
2013-08-24 18:50:00,83.7,29.5,30.15,North,0,0.0,0.0,14,0.00,,---,0.00,VWS V14.01,2013-08-24 22:50:00,
2013-08-24 18:55:00,83.3,29.2,30.15,North,0,0.0,0.0,14,0.00,,---,0.00,VWS V14.01,2013-08-24 22:55:00,
2013-08-24 19:00:00,83.1,29.0,30.15,North,0,0.0,0.0,14,0.00,,---,0.00,VWS V14.01,2013-08-24 23:00:00,
2013-08-24 19:05:00,82.9,28.9,30.15,North,0,0.0,0.0,14,0.00,,---,0.00,VWS V14.01,2013-08-24 23:05:00,
2013-08-24 19:10:00,82.8,28.8,30.15,North,0,0.0,0.0,14,0.00,,---,0.00,VWS V14.01,2013-08-24 23:10:00,
2013-08-24 19:15:00,82.6,28.6,30.15,North,0,0.0,0.0,14,0.00,,---,0.00,VWS V14.01,2013-08-24 23:15:00,
2013-08-24 19:20:00,82.2,28.3,30.18,North,0,0.0,0.0,14,0.00,,---,0.00,VWS V14.01,2013-08-24 23:20:00,
2013-08-24 19:25:00,82.0,28.2,30.18,North,0,0.0,0.0,14,0.00,,---,0.00,VWS V14.01,2013-08-24 23:25:00,
2013-08-24 19:30:00,81.7,27.9,30.18,North,0,0.0,0.0,14,0.00,,---,0.00,VWS V14.01,2013-08-24 23:30:00,
2013-08-24 19:35:00,81.3,27.6,30.15,North,0,0.0,0.0,14,0.00,,---,0.00,VWS V14.01,2013-08-24 23:35:00,
2013-08-24 19:40:00,81.0,27.3,30.15,North,0,0.0,0.0,14,0.00,,---,0.00,VWS V14.01,2013-08-24 23:40:00,
2013-08-24 19:45:00,80.6,27.0,30.15,North,0,0.0,0.0,14,0.00,,---,0.00,VWS V14.01,2013-08-24 23:45:00,
2013-08-24 19:50:00,80.4,28.6,30.15,North,0,0.0,0.0,15,0.00,,---,0.00,VWS V14.01,2013-08-24 23:50:00,
2013-08-24 19:55:00,80.2,28.4,30.15,North,0,0.0,0.0,15,0.00,,---,0.00,VWS V14.01,2013-08-24 23:55:00,
2013-08-24 20:00:00,79.9,28.1,30.15,North,0,0.0,0.0,15,0.00,,---,0.00,VWS V14.01,2013-08-25 00:00:00,
2013-08-24 20:05:00,79.3,27.7,30.18,North,0,0.0,0.0,15,0.00,,---,0.00,VWS V14.01,2013-08-25 00:05:00,
2013-08-24 20:10:00,78.6,31.6,30.18,North,0,0.0,0.0,18,0.00,,---,0.00,VWS V14.01,2013-08-25 00:10:00,
2013-08-24 20:15:00,78.4,31.5,30.18,North,0,0.0,0.0,18,0.00,,---,0.00,VWS V14.01,2013-08-25 00:15:00,
2013-08-24 20:20:00,78.1,31.2,30.15,North,0,0.0,0.0,18,0.00,,---,0.00,VWS V14.01,2013-08-25 00:20:00,
2013-08-24 20:25:00,77.7,30.9,30.15,North,0,0.0,0.0,18,0.00,,---,0.00,VWS V14.01,2013-08-25 00:25:00,
2013-08-24 20:30:00,77.4,30.6,30.15,North,0,0.0,0.0,18,0.00,,---,0.00,VWS V14.01,2013-08-25 00:30:00,
2013-08-24 20:35:00,77.0,30.3,30.15,North,0,0.0,0.0,18,0.00,,---,0.00,VWS V14.01,2013-08-25 00:35:00,
2013-08-24 20:40:00,76.6,30.0,30.15,North,0,0.0,0.0,18,0.00,,---,0.00,VWS V14.01,2013-08-25 00:40:00,
2013-08-24 20:45:00,76.3,32.3,30.15,North,0,0.0,0.0,20,0.00,,---,0.00,VWS V14.01,2013-08-25 00:45:00,
2013-08-24 20:50:00,75.7,31.9,30.15,North,0,0.0,0.0,20,0.00,,---,0.00,VWS V14.01,2013-08-25 00:50:00,
2013-08-24 20:55:00,75.2,31.4,30.15,North,0,0.0,0.0,20,0.00,,---,0.00,VWS V14.01,2013-08-25 00:55:00,
2013-08-24 21:00:00,74.8,32.3,30.15,North,0,0.0,0.0,21,0.00,,---,0.00,VWS V14.01,2013-08-25 01:00:00,
2013-08-24 21:05:00,74.5,32.0,30.15,North,0,0.0,0.0,21,0.00,,---,0.00,VWS V14.01,2013-08-25 01:05:00,
2013-08-24 21:10:00,74.1,31.7,30.15,North,0,0.0,0.0,21,0.00,,---,0.00,VWS V14.01,2013-08-25 01:10:00,
2013-08-24 21:15:00,73.9,31.6,30.15,North,0,0.0,0.0,21,0.00,,---,0.00,VWS V14.01,2013-08-25 01:15:00,
2013-08-24 21:20:00,73.8,31.4,30.18,North,0,0.0,0.0,21,0.00,,---,0.00,VWS V14.01,2013-08-25 01:20:00,
2013-08-24 21:25:00,73.4,31.1,30.18,North,0,0.0,0.0,21,0.00,,---,0.00,VWS V14.01,2013-08-25 01:25:00,
2013-08-24 21:30:00,73.0,32.0,30.18,North,0,0.0,0.0,22,0.00,,---,0.00,VWS V14.01,2013-08-25 01:30:00,
2013-08-24 21:35:00,73.0,32.0,30.18,North,0,0.0,0.0,22,0.00,,---,0.00,VWS V14.01,2013-08-25 01:35:00,
2013-08-24 21:40:00,72.9,31.8,30.18,North,0,0.0,0.0,22,0.00,,---,0.00,VWS V14.01,2013-08-25 01:40:00,
2013-08-24 21:45:00,72.7,31.7,30.18,North,0,0.0,0.0,22,0.00,,---,0.00,VWS V14.01,2013-08-25 01:45:00,
2013-08-24 21:50:00,72.7,31.7,30.18,North,0,0.0,0.0,22,0.00,,---,0.00,VWS V14.01,2013-08-25 01:50:00,
2013-08-24 21:55:00,72.5,31.5,30.18,North,0,0.0,0.0,22,0.00,,---,0.00,VWS V14.01,2013-08-25 01:55:00,
2013-08-24 22:00:00,72.5,31.5,30.18,North,0,0.0,0.0,22,0.00,,---,0.00,VWS V14.01,2013-08-25 02:00:00,
2013-08-24 22:05:00,72.1,31.2,30.18,North,0,0.0,0.0,22,0.00,,---,0.00,VWS V14.01,2013-08-25 02:05:00,
2013-08-24 22:10:00,72.1,31.2,30.18,North,0,0.0,0.0,22,0.00,,---,0.00,VWS V14.01,2013-08-25 02:10:00,
2013-08-24 22:15:00,72.0,31.1,30.18,North,0,0.0,0.0,22,0.00,,---,0.00,VWS V14.01,2013-08-25 02:15:00,
2013-08-24 22:20:00,71.8,30.9,30.18,North,0,0.0,0.0,22,0.00,,---,0.00,VWS V14.01,2013-08-25 02:20:00,
2013-08-24 22:25:00,71.6,30.8,30.18,North,0,0.0,0.0,22,0.00,,---,0.00,VWS V14.01,2013-08-25 02:25:00,
2013-08-24 22:30:00,71.6,30.8,30.18,North,0,0.0,0.0,22,0.00,,---,0.00,VWS V14.01,2013-08-25 02:30:00,
2013-08-24 22:35:00,71.4,31.7,30.18,North,0,0.0,0.0,23,0.00,,---,0.00,VWS V14.01,2013-08-25 02:35:00,
2013-08-24 22:40:00,71.2,31.6,30.18,North,0,0.0,0.0,23,0.00,,---,0.00,VWS V14.01,2013-08-25 02:40:00,
2013-08-24 22:45:00,70.9,31.3,30.18,North,0,0.0,0.0,23,0.00,,---,0.00,VWS V14.01,2013-08-25 02:45:00,
2013-08-24 22:50:00,70.7,32.2,30.18,North,0,0.0,0.0,24,0.00,,---,0.00,VWS V14.01,2013-08-25 02:50:00,
2013-08-24 22:55:00,70.5,32.0,30.18,North,0,0.0,0.0,24,0.00,,---,0.00,VWS V14.01,2013-08-25 02:55:00,
2013-08-24 23:00:00,70.2,31.7,30.18,North,0,0.0,0.0,24,0.00,,---,0.00,VWS V14.01,2013-08-25 03:00:00,
2013-08-24 23:05:00,70.2,31.7,30.18,North,0,0.0,0.0,24,0.00,,---,0.00,VWS V14.01,2013-08-25 03:05:00,
2013-08-24 23:10:00,70.0,31.6,30.18,North,0,0.0,0.0,24,0.00,,---,0.00,VWS V14.01,2013-08-25 03:10:00,
2013-08-24 23:15:00,69.8,31.4,30.18,North,0,0.0,0.0,24,0.00,,---,0.00,VWS V14.01,2013-08-25 03:15:00,
2013-08-24 23:20:00,69.6,32.3,30.18,North,0,0.0,0.0,25,0.00,,---,0.00,VWS V14.01,2013-08-25 03:20:00,
2013-08-24 23:25:00,69.4,32.1,30.18,North,0,0.0,0.0,25,0.00,,---,0.00,VWS V14.01,2013-08-25 03:25:00,
2013-08-24 23:30:00,69.1,31.8,30.18,North,0,0.0,0.0,25,0.00,,---,0.00,VWS V14.01,2013-08-25 03:30:00,
2013-08-24 23:35:00,69.1,31.8,30.18,North,0,0.0,0.0,25,0.00,,---,0.00,VWS V14.01,2013-08-25 03:35:00,
2013-08-24 23:40:00,68.9,31.7,30.18,North,0,0.0,0.0,25,0.00,,---,0.00,VWS V14.01,2013-08-25 03:40:00,
2013-08-24 23:45:00,68.5,32.3,30.18,North,0,0.0,0.0,26,0.00,,---,0.00,VWS V14.01,2013-08-25 03:45:00,
2013-08-24 23:50:00,68.4,32.2,30.18,North,0,0.0,0.0,26,0.00,,---,0.00,VWS V14.01,2013-08-25 03:50:00,
2013-08-24 23:55:00,68.2,32.0,30.18,North,0,0.0,0.0,26,0.00,,---,0.00,VWS V14.01,2013-08-25 03:55:00,